Time,TemperatureF,DewpointF,PressureIn,WindDirection,WindDirectionDegrees,WindSpeedMPH,WindSpeedGustMPH,Humidity,HourlyPrecipIn,Conditions,Clouds,dailyrainin,SoftwareType,DateUTC
2013-01-30 07:08:00,64.2,61.2,30.06,SSE,163,5.0,5.0,90,0.00,CLR,OVC,0.00,WeatherDisplay:10.37,2013-01-30 12:08:00,
2013-01-30 07:13:00,64.2,61.2,30.06,SSE,163,1.1,1.1,90,0.00,CLR,OVC,0.00,WeatherDisplay:10.37,2013-01-30 12:13:00,
2013-01-30 07:18:00,64.2,61.2,30.06,SSE,163,0.0,0.0,90,0.00,CLR,OVC,0.00,WeatherDisplay:10.37,2013-01-30 12:18:00,
2013-01-30 07:25:00,64.3,61.3,30.06,SSE,163,1.1,1.1,90,0.00,CLR,OVC,0.00,WeatherDisplay:10.37,2013-01-30 12:25:00,
2013-01-30 07:30:00,64.3,61.3,30.06,SSE,163,1.1,1.1,90,0.00,CLR,OVC,0.00,WeatherDisplay:10.37,2013-01-30 12:30:00,
2013-01-30 07:35:00,64.4,61.4,30.06,SSE,163,0.0,0.0,90,0.00,CLR,OVC,0.00,WeatherDisplay:10.37,2013-01-30 12:35:00,
2013-01-30 07:40:00,64.5,61.5,30.06,SSE,163,0.0,0.0,90,0.00,CLR,OVC,0.00,WeatherDisplay:10.37,2013-01-30 12:40:00,
2013-01-30 08:11:00,65.5,62.2,30.06,SSE,161,6.0,0.0,89,0.00,CLR,OVC,0.00,WeatherDisplay:10.37,2013-01-30 13:11:00,
2013-01-30 08:16:00,65.8,62.5,30.06,SSE,161,2.3,2.3,89,0.00,CLR,OVC,0.00,WeatherDisplay:10.37,2013-01-30 13:16:00,
2013-01-30 08:21:00,66.2,62.9,30.06,South,176,2.3,2.3,89,0.00,CLR,OVC,0.00,WeatherDisplay:10.37,2013-01-30 13:21:00,
2013-01-30 08:26:00,66.6,63.3,30.05,SSE,162,2.3,2.3,89,0.00,CLR,OVC,0.00,WeatherDisplay:10.37,2013-01-30 13:26:00,
2013-01-30 08:31:00,67.1,63.7,30.05,SSE,165,3.0,3.0,89,0.00,CLR,OVC,0.00,WeatherDisplay:10.37,2013-01-30 13:31:00,
2013-01-30 08:36:00,67.5,63.8,30.04,South,170,3.4,3.4,88,0.00,CLR,OVC,0.00,WeatherDisplay:10.37,2013-01-30 13:36:00,
2013-01-30 08:38:00,67.7,64.0,30.04,SSE,160,3.4,3.4,88,0.00,CLR,OVC,0.00,WeatherDisplay:10.37,2013-01-30 13:38:00,
2013-01-30 13:32:00,80.3,66.1,29.95,South,175,6.9,6.9,62,0.00,CLR,OVC,0.00,WeatherDisplay:10.37,2013-01-30 18:32:00,
2013-01-30 13:33:00,80.3,66.1,29.95,South,180,6.9,6.9,62,0.00,CLR,OVC,0.00,WeatherDisplay:10.37,2013-01-30 18:33:00,
2013-01-30 15:21:00,82.2,65.4,29.91,SSW,202,6.9,6.9,57,0.00,CLR,OVC,0.00,WeatherDisplay:10.37,2013-01-30 20:21:00,
2013-01-30 15:30:00,82.2,65.4,29.91,SSW,192,6.9,6.9,57,0.00,CLR,OVC,0.00,WeatherDisplay:10.37,2013-01-30 20:30:00,
2013-01-30 15:35:00,82.1,65.4,29.92,South,171,5.8,5.8,57,0.00,CLR,OVC,0.00,WeatherDisplay:10.37,2013-01-30 20:35:00,
2013-01-30 15:40:00,82.0,65.3,29.92,South,182,8.1,8.1,57,0.00,CLR,OVC,0.00,WeatherDisplay:10.37,2013-01-30 20:40:00,
2013-01-30 15:45:00,82.1,65.4,29.91,SSW,197,3.4,3.4,57,0.00,CLR,OVC,0.00,WeatherDisplay:10.37,2013-01-30 20:45:00,
2013-01-30 15:50:00,82.3,65.5,29.91,South,189,4.6,4.6,57,0.00,CLR,OVC,0.00,WeatherDisplay:10.37,2013-01-30 20:50:00,
2013-01-30 15:55:00,82.2,65.4,29.91,South,175,5.8,5.8,57,0.00,CLR,OVC,0.00,WeatherDisplay:10.37,2013-01-30 20:55:00,
2013-01-30 16:00:00,82.1,65.4,29.90,South,176,8.1,8.1,57,0.00,CLR,OVC,0.00,WeatherDisplay:10.37,2013-01-30 21:00:00,
2013-01-30 16:05:00,82.1,65.4,29.90,SSE,162,9.2,9.2,57,0.00,CLR,OVC,0.00,WeatherDisplay:10.37,2013-01-30 21:05:00,
2013-01-30 16:10:00,82.1,65.9,29.91,South,182,6.9,6.9,58,0.00,CLR,OVC,0.00,WeatherDisplay:10.37,2013-01-30 21:10:00,
2013-01-30 16:15:00,82.1,65.9,29.91,SSE,167,5.0,5.0,58,0.00,CLR,OVC,0.00,WeatherDisplay:10.37,2013-01-30 21:15:00,
2013-01-30 16:20:00,82.1,65.4,29.90,South,182,5.8,5.8,57,0.00,FEW,OVC,0.00,WeatherDisplay:10.37,2013-01-30 21:20:00,
2013-01-30 16:25:00,82.1,65.9,29.90,SSE,166,5.8,5.8,58,0.00,FEW,OVC,0.00,WeatherDisplay:10.37,2013-01-30 21:25:00,
2013-01-30 16:30:00,82.2,66.0,29.90,SSW,192,3.4,3.4,58,0.00,FEW,OVC,0.00,WeatherDisplay:10.37,2013-01-30 21:30:00,
2013-01-30 16:35:00,82.1,65.9,29.90,SSW,202,4.6,4.6,58,0.00,FEW,OVC,0.00,WeatherDisplay:10.37,2013-01-30 21:35:00,
2013-01-30 16:40:00,82.1,64.8,29.89,South,184,9.2,9.2,56,0.00,FEW,OVC,0.00,WeatherDisplay:10.37,2013-01-30 21:40:00,
2013-01-30 16:45:00,82.0,65.3,29.89,SSE,163,6.9,6.9,57,0.00,FEW,OVC,0.00,WeatherDisplay:10.37,2013-01-30 21:45:00,
2013-01-30 16:50:00,81.9,65.2,29.89,South,177,4.6,4.6,57,0.00,FEW,OVC,0.00,WeatherDisplay:10.37,2013-01-30 21:50:00,
2013-01-30 16:55:00,81.9,65.2,29.89,South,186,4.0,4.0,57,0.00,FEW,OVC,0.00,WeatherDisplay:10.37,2013-01-30 21:55:00,
2013-01-30 17:00:00,81.7,65.0,29.89,SSW,193,5.8,5.8,57,0.00,FEW,OVC,0.00,WeatherDisplay:10.37,2013-01-30 22:00:00,
2013-01-30 17:05:00,81.6,64.9,29.89,South,178,4.6,4.6,57,0.00,CLR,OVC,0.00,WeatherDisplay:10.37,2013-01-30 22:05:00,
2013-01-30 17:10:00,81.4,64.7,29.90,South,176,4.6,4.6,57,0.00,CLR,OVC,0.00,WeatherDisplay:10.37,2013-01-30 22:10:00,
2013-01-30 17:15:00,81.3,64.1,29.90,SSE,163,4.6,4.6,56,0.00,CLR,OVC,0.00,WeatherDisplay:10.37,2013-01-30 22:15:00,
2013-01-30 17:20:00,81.2,64.0,29.90,SW,217,9.2,9.2,56,0.00,CLR,OVC,0.00,WeatherDisplay:10.37,2013-01-30 22:20:00,
2013-01-30 17:25:00,81.1,63.9,29.90,SSE,168,6.9,6.9,56,0.00,CLR,OVC,0.00,WeatherDisplay:10.37,2013-01-30 22:25:00,
2013-01-30 17:30:00,80.9,63.7,29.90,SSW,192,5.0,5.0,56,0.00,CLR,OVC,0.00,WeatherDisplay:10.37,2013-01-30 22:30:00,
2013-01-30 17:35:00,80.7,64.1,29.90,South,189,4.0,4.0,57,0.00,CLR,OVC,0.00,WeatherDisplay:10.37,2013-01-30 22:35:00,
2013-01-30 17:40:00,80.5,64.4,29.89,South,176,5.8,5.8,58,0.00,CLR,OVC,0.00,WeatherDisplay:10.37,2013-01-30 22:40:00,
2013-01-30 17:45:00,80.3,64.2,29.89,South,173,6.0,7.0,58,0.00,CLR,OVC,0.00,WeatherDisplay:10.37,2013-01-30 22:45:00,
2013-01-30 17:50:00,80.1,64.5,29.89,SSE,162,5.0,5.0,59,0.00,CLR,OVC,0.00,WeatherDisplay:10.37,2013-01-30 22:50:00,
2013-01-30 17:55:00,79.9,64.8,29.89,South,180,5.8,5.8,60,0.00,CLR,OVC,0.00,WeatherDisplay:10.37,2013-01-30 22:55:00,
2013-01-30 18:00:00,79.7,64.6,29.88,South,176,4.6,4.6,60,0.00,CLR,OVC,0.00,WeatherDisplay:10.37,2013-01-30 23:00:00,
2013-01-30 18:05:00,79.5,64.4,29.88,SSE,163,5.0,5.0,60,0.00,CLR,OVC,0.00,WeatherDisplay:10.37,2013-01-30 23:05:00,
2013-01-30 18:10:00,79.3,64.7,29.88,South,186,4.6,4.6,61,0.00,CLR,OVC,0.00,WeatherDisplay:10.37,2013-01-30 23:10:00,
2013-01-30 18:15:00,79.1,65.0,29.88,South,188,4.6,4.6,62,0.00,CLR,OVC,0.00,WeatherDisplay:10.37,2013-01-30 23:15:00,
2013-01-30 18:20:00,78.8,65.1,29.88,South,170,5.0,5.0,63,0.00,CLR,OVC,0.00,WeatherDisplay:10.37,2013-01-30 23:20:00,
2013-01-30 18:25:00,78.4,64.8,29.88,SSW,200,4.0,4.0,63,0.00,CLR,OVC,0.00,WeatherDisplay:10.37,2013-01-30 23:25:00,
2013-01-30 18:30:00,78.1,64.9,29.88,South,176,5.8,5.8,64,0.00,CLR,OVC,0.00,WeatherDisplay:10.37,2013-01-30 23:30:00,
2013-01-30 18:35:00,77.9,65.2,29.89,SSW,192,4.6,4.6,65,0.00,CLR,OVC,0.00,WeatherDisplay:10.37,2013-01-30 23:35:00,
2013-01-30 18:40:00,77.7,65.0,29.89,SSW,192,3.4,3.4,65,0.00,CLR,OVC,0.00,WeatherDisplay:10.37,2013-01-30 23:40:00,
2013-01-30 18:45:00,77.4,65.1,29.89,South,188,3.4,3.4,66,0.00,CLR,OVC,0.00,WeatherDisplay:10.37,2013-01-30 23:45:00,
2013-01-30 18:50:00,77.1,64.9,29.89,South,188,3.4,3.4,66,0.00,CLR,OVC,0.00,WeatherDisplay:10.37,2013-01-30 23:50:00,
2013-01-30 18:55:00,76.8,65.0,29.89,South,181,3.4,3.4,67,0.00,CLR,OVC,0.00,WeatherDisplay:10.37,2013-01-30 23:55:00,
2013-01-30 19:00:00,76.5,64.7,29.89,South,169,4.0,4.0,67,0.00,CLR,OVC,0.00,WeatherDisplay:10.37,2013-01-31 00:00:00,
2013-01-30 19:05:00,76.3,64.5,29.90,SSW,196,6.9,6.9,67,0.00,CLR,OVC,0.00,WeatherDisplay:10.37,2013-01-31 00:05:00,
2013-01-30 19:10:00,76.3,64.5,29.90,South,176,5.8,5.8,67,0.00,CLR,OVC,0.00,WeatherDisplay:10.37,2013-01-31 00:10:00,
2013-01-30 19:15:00,76.2,64.4,29.90,South,185,5.8,5.8,67,0.00,CLR,OVC,0.00,WeatherDisplay:10.37,2013-01-31 00:15:00,
2013-01-30 19:20:00,76.1,64.8,29.90,SSW,208,5.0,5.0,68,0.00,CLR,OVC,0.00,WeatherDisplay:10.37,2013-01-31 00:20:00,
2013-01-30 19:25:00,75.9,64.6,29.90,South,187,8.1,8.1,68,0.00,CLR,OVC,0.00,WeatherDisplay:10.37,2013-01-31 00:25:00,
2013-01-30 19:30:00,75.8,64.5,29.90,SSE,163,5.8,5.8,68,0.00,CLR,OVC,0.00,WeatherDisplay:10.37,2013-01-31 00:30:00,
2013-01-30 19:35:00,75.5,64.2,29.90,South,182,5.0,5.0,68,0.00,CLR,OVC,0.00,WeatherDisplay:10.37,2013-01-31 00:35:00,
2013-01-30 19:40:00,75.4,64.1,29.89,South,169,8.1,8.1,68,0.00,CLR,OVC,0.00,WeatherDisplay:10.37,2013-01-31 00:40:00,
2013-01-30 19:45:00,75.1,63.4,29.89,South,170,6.0,6.0,67,0.00,CLR,OVC,0.00,WeatherDisplay:10.37,2013-01-31 00:45:00,
2013-01-30 19:50:00,75.0,63.3,29.89,South,187,5.8,5.8,67,0.00,CLR,OVC,0.00,WeatherDisplay:10.37,2013-01-31 00:50:00,
2013-01-30 19:55:00,74.9,63.6,29.89,South,187,9.2,9.2,68,0.00,CLR,OVC,0.00,WeatherDisplay:10.37,2013-01-31 00:55:00,
2013-01-30 19:59:00,74.7,63.9,29.90,South,172,10.3,10.3,69,0.00,CLR,OVC,0.00,WeatherDisplay:10.37,2013-01-31 00:59:00,
2013-01-30 20:00:00,74.7,63.9,29.90,South,172,10.3,10.3,69,0.00,CLR,OVC,0.00,WeatherDisplay:10.37,2013-01-31 01:00:00,
2013-01-30 20:05:00,74.7,63.9,29.90,South,172,10.3,10.3,69,0.00,CLR,OVC,0.00,WeatherDisplay:10.37,2013-01-31 01:05:00,
2013-01-30 20:19:00,73.8,64.2,29.90,South,170,10.0,10.0,72,0.00,CLR,OVC,0.00,WeatherDisplay:10.37,2013-01-31 01:19:00,
2013-01-30 20:24:00,73.5,64.3,29.90,South,182,6.0,6.0,73,0.00,CLR,OVC,0.00,WeatherDisplay:10.37,2013-01-31 01:24:00,
2013-01-30 20:29:00,73.4,64.6,29.90,South,189,4.6,4.6,74,0.00,CLR,OVC,0.00,WeatherDisplay:10.37,2013-01-31 01:29:00,
2013-01-30 20:34:00,73.2,64.4,29.90,South,182,5.0,5.0,74,0.00,CLR,OVC,0.00,WeatherDisplay:10.37,2013-01-31 01:34:00,
2013-01-30 20:39:00,73.1,64.7,29.90,South,173,8.1,8.1,75,0.00,CLR,OVC,0.00,WeatherDisplay:10.37,2013-01-31 01:39:00,
2013-01-30 20:44:00,73.0,64.6,29.90,South,177,5.8,5.8,75,0.00,CLR,OVC,0.00,WeatherDisplay:10.37,2013-01-31 01:44:00,
2013-01-30 20:49:00,72.9,64.5,29.90,South,186,6.9,6.9,75,0.00,CLR,OVC,0.00,WeatherDisplay:10.37,2013-01-31 01:49:00,
2013-01-30 20:54:00,72.9,64.5,29.90,South,170,6.9,6.9,75,0.00,CLR,OVC,0.00,WeatherDisplay:10.37,2013-01-31 01:54:00,
2013-01-30 20:59:00,72.8,64.8,29.90,SSE,167,6.9,6.9,76,0.00,CLR,OVC,0.00,WeatherDisplay:10.37,2013-01-31 01:59:00,
2013-01-30 21:04:00,72.7,64.7,29.90,South,176,5.8,5.8,76,0.00,CLR,OVC,0.00,WeatherDisplay:10.37,2013-01-31 02:04:00,
2013-01-30 21:09:00,72.6,65.0,29.90,SSE,166,9.2,9.2,77,0.00,CLR,OVC,0.00,WeatherDisplay:10.37,2013-01-31 02:09:00,
2013-01-30 21:14:00,72.5,64.9,29.90,South,191,5.8,5.8,77,0.00,CLR,OVC,0.00,WeatherDisplay:10.37,2013-01-31 02:14:00,
2013-01-30 21:19:00,72.5,65.2,29.91,South,172,6.9,6.9,78,0.00,CLR,OVC,0.00,WeatherDisplay:10.37,2013-01-31 02:19:00,
2013-01-30 21:24:00,72.4,65.2,29.91,SSW,192,4.6,4.6,78,0.00,CLR,OVC,0.00,WeatherDisplay:10.37,2013-01-31 02:24:00,
2013-01-30 21:29:00,72.3,65.1,29.91,South,182,5.0,5.0,78,0.00,CLR,OVC,0.00,WeatherDisplay:10.37,2013-01-31 02:29:00,
2013-01-30 21:34:00,72.2,65.3,29.90,South,177,5.8,5.8,79,0.00,CLR,OVC,0.00,WeatherDisplay:10.37,2013-01-31 02:34:00,
2013-01-30 21:39:00,72.2,65.3,29.90,SSE,167,5.0,5.0,79,0.00,CLR,OVC,0.00,WeatherDisplay:10.37,2013-01-31 02:39:00,
2013-01-30 21:44:00,72.1,65.2,29.90,South,178,5.8,5.8,79,0.00,CLR,OVC,0.00,WeatherDisplay:10.37,2013-01-31 02:44:00,
2013-01-30 21:49:00,72.0,65.1,29.90,South,173,6.9,6.9,79,0.00,CLR,OVC,0.00,WeatherDisplay:10.37,2013-01-31 02:49:00,
2013-01-30 21:54:00,71.9,65.0,29.90,South,177,4.6,4.6,79,0.00,CLR,OVC,0.00,WeatherDisplay:10.37,2013-01-31 02:54:00,
2013-01-30 21:59:00,71.8,64.9,29.90,South,179,4.6,4.6,79,0.00,CLR,OVC,0.00,WeatherDisplay:10.37,2013-01-31 02:59:00,
2013-01-30 22:04:00,71.8,64.9,29.89,South,176,5.0,5.0,79,0.00,CLR,OVC,0.00,WeatherDisplay:10.37,2013-01-31 03:04:00,
2013-01-30 22:09:00,71.9,65.0,29.89,South,172,6.9,6.9,79,0.00,CLR,OVC,0.00,WeatherDisplay:10.37,2013-01-31 03:09:00,
2013-01-30 22:14:00,71.9,64.7,29.89,SSW,192,4.6,4.6,78,0.00,CLR,OVC,0.00,WeatherDisplay:10.37,2013-01-31 03:14:00,
2013-01-30 22:19:00,71.9,64.7,29.89,SSE,166,6.9,6.9,78,0.00,CLR,OVC,0.00,WeatherDisplay:10.37,2013-01-31 03:19:00,
2013-01-30 22:24:00,71.9,64.7,29.89,South,170,8.1,8.1,78,0.00,CLR,OVC,0.00,WeatherDisplay:10.37,2013-01-31 03:24:00,
2013-01-30 22:29:00,72.0,64.8,29.89,South,177,9.2,9.2,78,0.00,CLR,OVC,0.00,WeatherDisplay:10.37,2013-01-31 03:29:00,
2013-01-30 22:34:00,71.9,64.7,29.89,South,186,5.8,5.8,78,0.00,CLR,OVC,0.00,WeatherDisplay:10.37,2013-01-31 03:34:00,
2013-01-30 22:39:00,71.9,64.7,29.90,SSW,201,4.6,4.6,78,0.00,CLR,OVC,0.00,WeatherDisplay:10.37,2013-01-31 03:39:00,
2013-01-30 22:44:00,71.9,64.7,29.90,SSE,156,6.0,6.0,78,0.00,CLR,OVC,0.00,WeatherDisplay:10.37,2013-01-31 03:44:00,
2013-01-30 22:50:00,71.8,64.9,29.90,South,182,6.0,6.1,79,0.00,CLR,OVC,0.00,WeatherDisplay:10.37,2013-01-31 03:50:00,
2013-01-30 22:55:00,71.7,64.8,29.90,South,169,5.8,5.8,79,0.00,CLR,OVC,0.00,WeatherDisplay:10.37,2013-01-31 03:55:00,
2013-01-30 23:00:00,71.6,65.1,29.90,South,189,4.6,4.7,80,0.00,CLR,OVC,0.00,WeatherDisplay:10.37,2013-01-31 04:00:00,
2013-01-30 23:05:00,71.6,65.1,29.90,South,180,4.6,4.6,80,0.00,CLR,OVC,0.00,WeatherDisplay:10.37,2013-01-31 04:05:00,
2013-01-30 23:10:00,71.6,65.1,29.89,South,176,4.6,4.6,80,0.00,CLR,OVC,0.00,WeatherDisplay:10.37,2013-01-31 04:10:00,
2013-01-30 23:15:00,71.5,65.0,29.90,SSW,202,4.6,4.6,80,0.00,CLR,OVC,0.00,WeatherDisplay:10.37,2013-01-31 04:15:00,
2013-01-30 23:20:00,71.4,64.9,29.90,SSE,164,3.4,3.4,80,0.00,CLR,OVC,0.00,WeatherDisplay:10.37,2013-01-31 04:20:00,
2013-01-30 23:25:00,71.4,65.3,29.89,South,173,11.5,11.5,81,0.00,CLR,OVC,0.00,WeatherDisplay:10.37,2013-01-31 04:25:00,
2013-01-30 23:30:00,71.4,65.3,29.90,South,182,8.1,8.1,81,0.00,CLR,OVC,0.00,WeatherDisplay:10.37,2013-01-31 04:30:00,
2013-01-30 23:35:00,71.3,65.2,29.90,SSW,192,6.9,6.9,81,0.00,CLR,OVC,0.00,WeatherDisplay:10.37,2013-01-31 04:35:00,
2013-01-30 23:40:00,71.3,65.2,29.89,SSW,198,5.0,5.0,81,0.00,CLR,OVC,0.00,WeatherDisplay:10.37,2013-01-31 04:40:00,
2013-01-30 23:45:00,71.2,65.1,29.90,South,182,4.6,4.6,81,0.00,CLR,OVC,0.00,WeatherDisplay:10.37,2013-01-31 04:45:00,
2013-01-30 23:50:00,71.1,65.0,29.90,South,191,3.4,3.4,81,0.00,CLR,OVC,0.00,WeatherDisplay:10.37,2013-01-31 04:50:00,
2013-01-30 23:55:00,71.0,65.2,29.90,South,178,6.9,6.9,82,0.00,CLR,OVC,0.00,WeatherDisplay:10.37,2013-01-31 04:55:00,